Regional Weather Roundup
Issued by NWS

Home | Current Version | Previous Version | Text Only | Print | Product List | Glossary On
Versions: 1 2 3 4 5 6 7 8 9 10 11 12 13 14 15 16 17 18 19 20 21 22 23 24 25 26 27 28 29 30 31 32 33 34 35 36 37 38 39 40 41 42 43 44 45 46 47 48 49 50
000
ASUS43 KLSX 210307
RWRMO

WEATHER SUMMARY FOR MISSOURI
NATIONAL WEATHER SERVICE SPRINGFIELD MO
900 PM CST TUE FEB 20 2018

NOTE: "FAIR" INDICATES FEW OR NO CLOUDS BELOW 12,000 FEET WITH NO
       SIGNIFICANT WEATHER AND/OR OBSTRUCTIONS TO VISIBILITY.
       CURRENT SKY AND/OR WEATHER CONDITIONS ARE NOT AVAILABLE FOR
       CHILLICOTHE AND FARMINGTON.

MOZ001>031-035>038-043-044-053-054-210400-
...NORTHERN AND WESTERN MISSOURI...

CITY           SKY/WX    TMP DP  RH WIND       PRES   REMARKS
KANSAS CTY INT CLOUDY    20  15  81 N15       30.29R WCI   6
KANSAS C DTWN  CLOUDY    23  16  74 N15G21    30.31R WCI  10
LEE`S SUMMIT   CLOUDY    22  18  85 N16       30.29R WCI   8
ST JOSEPH      MOCLDY    20  14  77 N15       30.34R WCI   6
CHILLICOTHE      N/A     23  18  81 N7        30.30R WCI  15
KIRKSVILLE     CLOUDY    23  20  88 NW14G24   30.25R WCI  11

$$
MOZ066>068-077>081-088>096-101>105-210400-
...SOUTHWEST MISSOURI...

CITY           SKY/WX    TMP DP  RH WIND       PRES   REMARKS
SPRINGFIELD    LGT RAIN  33  32  96 N12       30.15R WCI  24
JOPLIN         FRZ RAIN  28  27  96 N21G28    30.25R WCI  15
BRANSON        HVY RAIN  36  36 100 N8        30.09S FOG     WCI  29

$$
MOZ032>034-039>042-045>050-055>058-069>072-210400-
...CENTRAL MISSOURI...

CITY           SKY/WX    TMP DP  RH WIND       PRES   REMARKS
COLUMBIA       FRZ RAIN  32  30  92 NW14      30.20R FOG     WCI  22
JEFFERSON CITY RAIN      33  30  88 NW9       30.21R FOG     WCI  25
ROLLA          LGT RAIN  33  33 100 N7        30.15R WCI  27
SEDALIA        FRZ RAIN  28  25  88 N15G24    30.24R WCI  16
WHITEMAN AFB   MOCLDY    25  20  84 CALM      30.20R
WARRENSBURG    CLOUDY    25  21  86 NW6       30.26R WCI  18
OSAGE BEACH    LGT SNOW  32  31  96 N8        30.20R FOG     WCI  25

$$
MOZ051-052-059>065-210400-
...EAST CENTRAL MISSOURI...

CITY           SKY/WX    TMP DP  RH WIND       PRES   REMARKS
ST LOUIS INTL  RAIN      38  37  97 N13       30.10F WCI  30
SPIRIT OF STL  RAIN      37  35  92 N9        30.14R
ST CHARLES     RAIN      36  33  89 N16G28    30.13R FOG     WCI  26

$$
MOZ072>076-082>087-097>100-106>115-210400-
...SOUTH CENTRAL AND SOUTHEAST MISSOURI...

CITY           SKY/WX    TMP DP  RH WIND       PRES   REMARKS
CAPE GIRARDEAU FAIR      70  60  70 S17G26    29.99F
FARMINGTON     HVY RAIN  43  42  97 NW15      30.08R
POPLAR BLUFF   CLOUDY    70  63  78 S15       29.98S
WEST PLAINS    RAIN      41  39  93 N9        30.07R FOG

$$


USA.gov is the U.S. government's official web portal to all federal, state and local government web resources and services.